    Orbital elements:
        A/2021 E2                                                                   
    Epoch 2020 Dec. 17.0 TT = JDT 2459200.5                                         
    T 2020 Dec. 10.04160 TT                                 Rudenko                 
    q   2.2863173            (2000.0)            P               Q                  
    z  +0.0071617      Peri.  342.30413     -0.88028613     -0.47270330             
     +/-0.0018708      Node   190.79031     -0.40485494     +0.70380646             
    e   0.9836262      Incl.  167.47687     -0.24736372     +0.53029054             
    H   17.5                                                                        
    From 66 observations 2021 Mar. 7-Apr. 2, mean residual 0".5.                    
                                                                                    
        A/2021 E2                                                                   
    Epoch 2020 Dec. 17.0 TT = JDT 2459200.5                                         
    T 2020 Dec. 10.04160 TT                                 Rudenko                 
    q   2.2863173            (2000.0)            P               Q                  
    z  +0.0071617      Peri.  342.30413     -0.88028613     -0.47270330             
     +/-0.0018708      Node   190.79031     -0.40485494     +0.70380646             
    e   0.9836262      Incl.  167.47687     -0.24736372     +0.53029054             
    H   17.5                                                                        
    From 66 observations 2021 Mar. 7-Apr. 2, mean residual 0".5.                    
                                                                                    
    Ephemeris:
    Date    TT    R. A. (2000) Decl.     Delta      r    Elong.  Phase   m1    m2
    2021 03 29    10 47 22.4 +15 35 59   1.6861  2.5893   148.3    11.7        21.4
    ...
    2021 04 13    10 03 08.2 +20 02 22   1.9937  2.6698   122.5    18.5        22.1
    ...
    2021 04 21    09 46 35.5 +21 25 40   2.1931  2.7154   110.6    20.3        22.4
    ...
    2021 04 27    09 36 58.9 +22 09 34   2.3512  2.7508   102.5    20.9        22.6
    2021 04 28    09 35 35.3 +22 15 38   2.3781  2.7568   101.2    21.0        22.6
    2021 04 29    09 34 15.0 +22 21 24   2.4050  2.7628    99.9    21.0        22.6
    ...
    2021 05 05    09 27 18.2 +22 50 09   2.5680  2.7994    92.5    21.1        22.8
    ...
    2021 05 13    09 20 34.4 +23 15 55   2.7865  2.8494    83.2    20.6        23.0
    ...
    2021 05 28    09 13 53.0 +23 38 52   3.1854  2.9469    67.3    18.5        23.3
    
    M. P. C. Staff               (C) Copyright 2021 MPC           M.P.E.C. 2021-H143
    


    Read MPEC 2021-H142 Read MPEC 2021-H144


    MPEC number:

    Enter an MPEC number in one of the following forms:

    • 1997-B01 (the full form)
    • J97B01 (the packed version of the full form)
    • B01 (the abbreviated form)